Regional Weather Roundup
Issued by NWS Upton, NY

Current Version | Previous Version | Text Only | Print | Product List | Glossary On
Versions: 1 2 3 4 5 6 7 8 9 10 11 12 13 14 15 16 17 18 19 20 21 22 23 24 25 26 27 28 29 30 31 32 33 34 35 36 37 38 39 40 41 42 43 44 45 46 47 48 49 50
000
ASUS41 KOKX 250908
RWROKX

REGIONAL WEATHER ROUNDUP
NATIONAL WEATHER SERVICE NEW YORK NY
500 AM EDT MON MAY 25 2015

NOTE: "FAIR" INDICATES FEW OR NO CLOUDS BELOW 12,000 FEET WITH NO
SIGNIFICANT WEATHER AND/OR OBSTRUCTIONS TO VISIBILITY.

NYZ071-072-176-178-NJZ106-104-251000-
NEW YORK CITY METRO AREA


CITY           SKY/WX    TMP DP  RH WIND       PRES   REMARKS
CENTRAL PARK   MOCLDY    65  53  65 W8        30.29R
LAGUARDIA APRT PTCLDY    65  52  62 S7        30.26R
KENNEDY INTL   PTCLDY    58  52  80 S6        30.28R
NEWARK/LIBERTY MOCLDY    61  52  72 SW5       30.26S
BRNX BOT. GARD   N/A     64  52  63 SW2       30.26S
TETERBORO      MOCLDY    62  51  67 CALM      30.25S
$$

NYZ177-179-078>081-251000-
LONG ISLAND NEW YORK

CITY           SKY/WX    TMP DP  RH WIND       PRES   REMARKS
FARMINGDALE    PTCLDY    56  53  90 SW3       30.28R
ISLIP          CLEAR     56  53  90 SW3       30.26R
SHIRLEY        PTCLDY    58  54  86 SW6       30.28S
WESTHAMPTON    PTCLDY    57  54  89 SW6       30.29R
MONTAUK POINT    N/A     58  52  80 SW5       30.28R
$$

NYZ052-065-067-251000-
HUDSON VALLEY

CITY           SKY/WX    TMP DP  RH WIND       PRES   REMARKS
WHITE PLAINS   MOCLDY    61  51  70 CALM      30.26R
NEWBURGH       CLEAR     61  52  72 CALM      30.25S
MONTGOMERY     CLOUDY    58  52  80 CALM      30.24S
POUGHKEEPSIE   CLOUDY    59  52  77 CALM      30.23S
ALBANY         CLOUDY    63  45  51 S9        30.21R
$$

NJZ001-105-106-008-010-013-015-019>022-104-251000-
NEW JERSEY

CITY           SKY/WX    TMP DP  RH WIND       PRES   REMARKS
NEWARK/LIBERTY MOCLDY    61  52  72 SW5       30.26S
TETERBORO      MOCLDY    62  51  67 CALM      30.25S
CALDWELL       MOCLDY    62  51  67 CALM      30.26S
MORRISTOWN     MOCLDY    57  52  82 CALM      30.26S
SOMERVILLE     PTCLDY    53  50  89 CALM      30.25R
SUSSEX         CLOUDY    56  48  74 CALM      30.27S
ANDOVER          N/A     58  54  86 CALM      30.26S
TRENTON        MOCLDY    59  54  83 S3        30.26S
MILLVILLE      CLEAR     59  56  89 CALM      30.28S
ATLANTIC CITY  PTCLDY    60  55  83 S6        30.29R
WRIGHTSTOWN    PTCLDY    57  54  89 SW3       30.25S
TOMS RIVER     PTCLDY   N/A N/A N/A SW5       30.27S
BELMAR         PTCLDY    57  48  72 SW5       30.27S
$$

PAZ047>061-062-071-251000-
EASTERN PENNSYLVANIA

CITY           SKY/WX    TMP DP  RH WIND       PRES   REMARKS
PHILADELPHIA   CLOUDY    64  56  75 SE6       30.27S
ALLENTOWN      CLOUDY    59  49  69 CALM      30.25S
SCRANTON       CLOUDY    63  48  58 CALM      30.24S
$$

CTZ002-004>006-009-010-012-RIZ004-006-007-MAZ004-011-015-251000-
SOUTHERN NEW ENGLAND
 IN CT

CITY           SKY/WX    TMP DP  RH WIND       PRES   REMARKS
BRADLEY INTL   CLOUDY    58  50  75 S6        30.23S
HARTFORD       CLOUDY    59  51  75 S6        30.25R
DANBURY        MOCLDY    53  48  83 CALM      30.27R
WTRBRY/OXFORD  MOCLDY    55  46  71 CALM      30.29R
BRIDGEPORT     PTCLDY    57  52  83 SW3       30.26S
MERIDEN        MOCLDY    55  51  86 CALM      30.26R
NEW HAVEN      PTCLDY    53  50  89 CALM      30.26S
CHESTER        FAIR      57  52  82 SW7       30.26S
GROTON         PTCLDY    53  50  89 SW3       30.26R
WILLIMANTIC    MOCLDY    52  49  89 CALM      30.26R

 IN RI

CITY           SKY/WX    TMP DP  RH WIND       PRES   REMARKS
PROVIDENCE     PTCLDY    52  48  86 S6        30.25S
BLOCK ISLAND   PTCLDY    54  48  82 SW14      30.28R
WESTERLY       PTCLDY    52  49  89 CALM      30.27R

 IN MA

CITY           SKY/WX    TMP DP  RH WIND       PRES   REMARKS
BOSTON         CLOUDY    58  49  72 S7        30.23R
WORCESTER      CLOUDY    58  47  66 W10       30.25R
WESTFIELD      CLOUDY    56  50  80 CALM      30.24R
PROVINCETOWN   CLOUDY    55  50  82 S12       30.25R
NANTUCKET      PTCLDY    55  51  86 SW12      30.28S
$$

ANZ330-335-338-340-345-350-353-355-251000-
COASTAL MARINE OBSERVATIONS


STATION/POSITION TIME  SKY/WX   TEMP    WIND        PRES    VSBY  WAVE
                                AIR SEA DIR/SP/G                  HT/PER
                 (UTC)          (F)     (DEG/KT/KT) (MB)    (MI)  (FT/S)
NY HARB ENTRANCE 0850            58 56  210/  8/  8 1024.7          2/ 5
4S FIRE IS       0803               53                N/A           3/ 5
20S FIRE ISLAND  0850            58 55  220/ 12/ 14 1025.1          3/ 5
GREAT SOUTH BAY  0800            60 63  230/ 12/ 16   N/A
23SW MTP         0850            55 53  240/ 10/ 10 1025.2          3/ 6
HUDSON CANYON    NOT AVBL
KINGS POINT      0800            62 55  180/  5/  7 1023.9
CENTRAL LI SOUND 0800            56 52  220/  4/  4   N/A
EASTERN LI SOUND 0800            53     210/  2/  4   N/A
ROBBINS REEF     0800            63     240/  3/  4 1023.6
$$


>>>>>>>>>>>>>>>>>>>>>>>>>>>> KEY <<<<<<<<<<<<<<<<<<<<<<<<<<<
>                                                          <
>     SKY/WX - SKY CONDITION/PRESENT WEATHER               <
>     TMP    - TEMPERATURE IN FAHRENHEIT                   <
>     DP     - DEWPOINT IN FAHRENHEIT                      <
>     RH     - RELATIVE HUMIDITY IN PERCENT                <
>     WIND   - DIRECTION AND SPEED IN MPH                  <
>     PRES   - MEAN SEA LEVEL PRESSURE IN INCHES OF HG     <
>     WCI    - WIND CHILL INDEX                            <
>     VSB    - VISIBILITY IN MILES                         <
>     HX     - HEAT INDEX                                  <
>     TC     - TEMPERATURE IN CELSIUS                      <
>     VRB    - VARIABLE WIND DIRECTION                     <
>                                                          <
>>>>>>>>>>>>>>>>>>>>>>>>>>>> KEY <<<<<<<<<<<<<<<<<<<<<<<<<<<




USA.gov is the U.S. government's official web portal to all federal, state and local government web resources and services.